Back to catalog

FENGYUN 1C DEB

AlivePO
NORAD 30960·DEBRIS·🇨🇳 China

Launched May 10, 1999 from Taiyuan Satellite Launch Center

Loading…

Next Passes (next 24 hours)

TLE

FreshSource: Space-Track

Epoch: Sep 11, 2026, 05:15 UTC

1 30960U 99025BBA 26254.21938496  .00003347  00000-0  42723-3 0  9992
2 30960  99.0298  43.3245 0184745  39.3174 322.1276 14.70967267 26767

Track FENGYUN 1C DEB in real time with AllMySat

Download on the App Store